Time,TemperatureF,DewpointF,PressureIn,WindDirection,WindDirectionDegrees,WindSpeedMPH,WindSpeedGustMPH,Humidity,HourlyPrecipIn,Conditions,Clouds,dailyrainin,SoftwareType,DateUTC
2013-05-21 00:07:00,77.0,75.1,29.83,SE,135,6.7,-999.0,94,-99.99,,,0.00,Acu-Link.com,2013-05-21 05:07:00,
2013-05-21 00:22:00,76.8,75.0,29.84,South,180,4.7,-999.0,94,-99.99,,,0.00,Acu-Link.com,2013-05-21 05:22:00,
2013-05-21 00:37:00,76.5,74.9,29.84,SSE,157,4.7,-999.0,95,-99.99,,,0.00,Acu-Link.com,2013-05-21 05:37:00,
2013-05-21 00:52:00,76.3,74.7,29.84,ESE,112,3.1,-999.0,95,-99.99,,,0.00,Acu-Link.com,2013-05-21 05:52:00,
2013-05-21 01:08:00,76.3,75.1,29.85,SE,135,3.1,-999.0,96,-99.99,,,0.00,Acu-Link.com,2013-05-21 06:08:00,
2013-05-21 01:23:00,76.3,75.4,29.85,SSE,157,2.7,-999.0,97,-99.99,,,0.00,Acu-Link.com,2013-05-21 06:23:00,
2013-05-21 01:54:00,75.6,75.0,29.83,SSE,157,4.3,-999.0,98,-99.99,,,0.00,Acu-Link.com,2013-05-21 06:54:00,
2013-05-21 02:09:00,75.4,75.1,29.83,SSE,157,3.1,-999.0,99,-99.99,,,0.00,Acu-Link.com,2013-05-21 07:09:00,
2013-05-21 02:24:00,75.4,75.1,29.82,SSE,157,4.3,-999.0,99,-99.99,,,0.00,Acu-Link.com,2013-05-21 07:24:00,
2013-05-21 02:40:00,75.2,74.9,29.82,SSE,157,5.1,-999.0,99,-99.99,,,0.00,Acu-Link.com,2013-05-21 07:40:00,
2013-05-21 02:55:00,75.2,74.9,29.82,ESE,112,5.1,-999.0,99,-99.99,,,0.00,Acu-Link.com,2013-05-21 07:55:00,
2013-05-21 03:12:00,75.2,74.9,29.82,South,180,3.8,-999.0,99,-99.99,,,0.00,Acu-Link.com,2013-05-21 08:12:00,
2013-05-21 03:28:00,75.2,74.9,29.82,South,180,3.8,-999.0,99,-99.99,,,0.00,Acu-Link.com,2013-05-21 08:28:00,
2013-05-21 03:43:00,75.2,74.9,29.82,SE,135,4.3,-999.0,99,-99.99,,,0.00,Acu-Link.com,2013-05-21 08:43:00,
2013-05-21 03:58:00,74.8,74.5,29.82,SSE,157,3.1,-999.0,99,-99.99,,,0.00,Acu-Link.com,2013-05-21 08:58:00,
2013-05-21 04:13:00,74.5,74.2,29.83,SSE,157,1.6,-999.0,99,-99.99,,,0.00,Acu-Link.com,2013-05-21 09:13:00,
2013-05-21 04:28:00,74.3,74.0,29.82,SSW,202,2.7,-999.0,99,-99.99,,,0.00,Acu-Link.com,2013-05-21 09:28:00,
2013-05-21 04:43:00,73.9,73.6,29.82,South,180,2.7,-999.0,99,-99.99,,,0.00,Acu-Link.com,2013-05-21 09:43:00,
2013-05-21 04:59:00,73.8,73.5,29.82,ESE,112,4.7,-999.0,99,-99.99,,,0.00,Acu-Link.com,2013-05-21 09:59:00,
2013-05-21 05:14:00,73.9,73.6,29.80,South,180,2.2,-999.0,99,-99.99,,,0.00,Acu-Link.com,2013-05-21 10:14:00,
2013-05-21 05:29:00,73.9,73.6,29.81,ESE,112,4.3,-999.0,99,-99.99,,,0.00,Acu-Link.com,2013-05-21 10:29:00,
2013-05-21 05:45:00,74.3,74.0,29.81,ESE,112,4.3,-999.0,99,-99.99,,,0.00,Acu-Link.com,2013-05-21 10:45:00,
2013-05-21 06:00:00,74.5,74.2,29.81,SSW,202,1.6,-999.0,99,-99.99,,,0.00,Acu-Link.com,2013-05-21 11:00:00,
2013-05-21 06:15:00,74.5,74.2,29.82,SSE,157,2.7,-999.0,99,-99.99,,,0.00,Acu-Link.com,2013-05-21 11:15:00,
2013-05-21 06:31:00,74.5,74.2,29.82,SSE,157,3.8,-999.0,99,-99.99,,,0.00,Acu-Link.com,2013-05-21 11:31:00,
2013-05-21 06:46:00,74.7,74.4,29.83,SSE,157,5.1,-999.0,99,-99.99,,,0.00,Acu-Link.com,2013-05-21 11:46:00,
2013-05-21 07:01:00,75.0,74.7,29.82,SE,135,4.3,-999.0,99,-99.99,,,0.00,Acu-Link.com,2013-05-21 12:01:00,
2013-05-21 07:16:00,75.6,75.3,29.83,South,180,2.7,-999.0,99,-99.99,,,0.00,Acu-Link.com,2013-05-21 12:16:00,
2013-05-21 07:31:00,76.3,76.0,29.83,SSE,157,3.8,-999.0,99,-99.99,,,0.00,Acu-Link.com,2013-05-21 12:31:00,
2013-05-21 07:46:00,77.2,76.3,29.83,SE,135,7.4,-999.0,97,-99.99,,,0.00,Acu-Link.com,2013-05-21 12:46:00,
2013-05-21 08:02:00,78.1,76.5,29.83,ESE,112,5.1,-999.0,95,-99.99,,,0.00,Acu-Link.com,2013-05-21 13:02:00,
2013-05-21 08:17:00,78.3,76.4,29.83,SSE,157,9.8,-999.0,94,-99.99,,,0.00,Acu-Link.com,2013-05-21 13:17:00,
2013-05-21 08:32:00,80.2,76.7,29.82,SSE,157,12.5,-999.0,89,-99.99,,,0.00,Acu-Link.com,2013-05-21 13:32:00,
2013-05-21 08:48:00,80.6,76.4,29.82,SE,135,10.3,-999.0,87,-99.99,,,0.00,Acu-Link.com,2013-05-21 13:48:00,
2013-05-21 09:03:00,81.7,76.7,29.83,South,180,8.3,-999.0,85,-99.99,,,0.00,Acu-Link.com,2013-05-21 14:03:00,
2013-05-21 09:18:00,83.5,76.6,29.83,ESE,112,7.4,-999.0,80,-99.99,,,0.00,Acu-Link.com,2013-05-21 14:18:00,
2013-05-21 09:33:00,82.2,76.2,29.83,South,180,7.8,-999.0,82,-99.99,,,0.00,Acu-Link.com,2013-05-21 14:33:00,
2013-05-21 09:49:00,82.8,75.9,29.84,SSE,157,11.4,-999.0,80,-99.99,,,0.00,Acu-Link.com,2013-05-21 14:49:00,
2013-05-21 10:04:00,81.3,75.3,29.84,SSE,157,11.0,-999.0,82,-99.99,,,0.00,Acu-Link.com,2013-05-21 15:04:00,
2013-05-21 10:19:00,84.7,76.7,29.83,SSE,157,8.3,-999.0,77,-99.99,,,0.00,Acu-Link.com,2013-05-21 15:19:00,
2013-05-21 10:34:00,84.7,75.9,29.84,SE,135,11.4,-999.0,75,-99.99,,,0.00,Acu-Link.com,2013-05-21 15:34:00,
2013-05-21 10:50:00,82.6,74.6,29.84,SE,135,8.3,-999.0,77,-99.99,,,0.00,Acu-Link.com,2013-05-21 15:50:00,
2013-05-21 11:05:00,85.1,75.9,29.83,South,180,8.3,-999.0,74,-99.99,,,0.00,Acu-Link.com,2013-05-21 16:05:00,
2013-05-21 11:20:00,83.5,74.7,29.83,SSW,202,11.9,-999.0,75,-99.99,,,0.00,Acu-Link.com,2013-05-21 16:20:00,
2013-05-21 11:36:00,82.9,74.6,29.84,ESE,112,8.9,-999.0,76,-99.99,,,0.00,Acu-Link.com,2013-05-21 16:36:00,
2013-05-21 11:51:00,85.1,76.3,29.84,SE,135,8.3,-999.0,75,-99.99,,,0.00,Acu-Link.com,2013-05-21 16:51:00,
2013-05-21 12:06:00,86.0,75.0,29.84,SSE,157,9.4,-999.0,70,-99.99,,,0.00,Acu-Link.com,2013-05-21 17:06:00,
2013-05-21 12:22:00,85.6,75.1,29.83,SSW,202,11.9,-999.0,71,-99.99,,,0.00,Acu-Link.com,2013-05-21 17:22:00,
2013-05-21 12:37:00,84.7,75.1,29.83,SE,135,11.9,-999.0,73,-99.99,,,0.00,Acu-Link.com,2013-05-21 17:37:00,
2013-05-21 12:52:00,86.2,75.6,29.82,SSE,157,15.0,-999.0,71,-99.99,,,0.00,Acu-Link.com,2013-05-21 17:52:00,
2013-05-21 13:07:00,87.3,75.8,29.82,SSW,202,10.3,-999.0,69,-99.99,,,0.00,Acu-Link.com,2013-05-21 18:07:00,
2013-05-21 13:23:00,87.4,75.5,29.81,South,180,9.4,-999.0,68,-99.99,,,0.00,Acu-Link.com,2013-05-21 18:23:00,
2013-05-21 13:38:00,87.6,74.4,29.81,SE,135,10.3,-999.0,65,-99.99,,,0.00,Acu-Link.com,2013-05-21 18:38:00,
2013-05-21 13:53:00,88.0,75.6,29.80,South,180,7.4,-999.0,67,-99.99,,,0.00,Acu-Link.com,2013-05-21 18:53:00,
2013-05-21 14:08:00,86.9,75.0,29.80,South,180,9.8,-999.0,68,-99.99,,,0.00,Acu-Link.com,2013-05-21 19:08:00,
2013-05-21 14:24:00,86.5,74.2,29.80,South,180,14.1,-999.0,67,-99.99,,,0.00,Acu-Link.com,2013-05-21 19:24:00,
2013-05-21 14:39:00,87.1,74.8,29.79,South,180,5.8,-999.0,67,-99.99,,,0.00,Acu-Link.com,2013-05-21 19:39:00,
2013-05-21 14:54:00,87.3,74.5,29.79,SW,225,14.5,-999.0,66,-99.99,,,0.00,Acu-Link.com,2013-05-21 19:54:00,
2013-05-21 15:10:00,87.1,73.9,29.78,SSW,202,11.4,-999.0,65,-99.99,,,0.00,Acu-Link.com,2013-05-21 20:10:00,
2013-05-21 15:25:00,87.4,74.2,29.78,South,180,13.0,-999.0,65,-99.99,,,0.00,Acu-Link.com,2013-05-21 20:25:00,
2013-05-21 15:40:00,86.5,74.2,29.77,SSE,157,9.8,-999.0,67,-99.99,,,0.00,Acu-Link.com,2013-05-21 20:40:00,
2013-05-21 15:55:00,88.0,75.6,29.77,South,180,8.3,-999.0,67,-99.99,,,0.00,Acu-Link.com,2013-05-21 20:55:00,
2013-05-21 16:11:00,88.2,76.2,29.76,SSW,202,12.5,-999.0,68,-99.99,,,0.00,Acu-Link.com,2013-05-21 21:11:00,
2013-05-21 16:26:00,87.1,75.6,29.75,South,180,9.8,-999.0,69,-99.99,,,0.00,Acu-Link.com,2013-05-21 21:26:00,
2013-05-21 16:41:00,84.9,75.7,29.74,SE,135,11.9,-999.0,74,-99.99,,,0.00,Acu-Link.com,2013-05-21 21:41:00,
2013-05-21 16:57:00,85.3,76.0,29.74,SSW,202,7.4,-999.0,74,-99.99,,,0.00,Acu-Link.com,2013-05-21 21:57:00,
2013-05-21 17:12:00,84.7,76.3,29.73,SE,135,8.3,-999.0,76,-99.99,,,0.00,Acu-Link.com,2013-05-21 22:12:00,
2013-05-21 17:27:00,82.9,76.1,29.72,SE,135,12.5,-999.0,80,-99.99,,,0.00,Acu-Link.com,2013-05-21 22:27:00,
2013-05-21 17:43:00,82.8,76.3,29.72,SE,135,8.9,-999.0,81,-99.99,,,0.00,Acu-Link.com,2013-05-21 22:43:00,
2013-05-21 17:58:00,82.0,76.0,29.71,SSW,202,12.5,-999.0,82,-99.99,,,0.00,Acu-Link.com,2013-05-21 22:58:00,
2013-05-21 18:13:00,82.2,76.5,29.69,SSW,202,11.4,-999.0,83,-99.99,,,0.00,Acu-Link.com,2013-05-21 23:13:00,
2013-05-21 18:28:00,82.0,76.3,29.70,SSE,157,7.4,-999.0,83,-99.99,,,0.00,Acu-Link.com,2013-05-21 23:28:00,
2013-05-21 18:44:00,82.6,76.5,29.71,South,180,6.3,-999.0,82,-99.99,,,0.00,Acu-Link.com,2013-05-21 23:44:00,
2013-05-21 18:59:00,81.9,74.3,29.72,SSE,157,9.4,-999.0,78,-99.99,,,0.00,Acu-Link.com,2013-05-21 23:59:00,
2013-05-21 19:14:00,80.6,74.2,29.72,ESE,112,7.8,-999.0,81,-99.99,,,0.00,Acu-Link.com,2013-05-22 00:14:00,
2013-05-21 19:30:00,80.2,75.0,29.73,SSW,202,5.8,-999.0,84,-99.99,,,0.00,Acu-Link.com,2013-05-22 00:30:00,
2013-05-21 19:45:00,80.1,74.8,29.74,SSE,157,6.7,-999.0,84,-99.99,,,0.00,Acu-Link.com,2013-05-22 00:45:00,
2013-05-21 20:00:00,79.7,75.1,29.74,SSE,157,7.4,-999.0,86,-99.99,,,0.00,Acu-Link.com,2013-05-22 01:00:00,
2013-05-21 20:16:00,79.3,75.1,29.74,SSE,157,6.7,-999.0,87,-99.99,,,0.00,Acu-Link.com,2013-05-22 01:16:00,
2013-05-21 20:31:00,79.2,74.9,29.75,South,180,6.3,-999.0,87,-99.99,,,0.00,Acu-Link.com,2013-05-22 01:31:00,
2013-05-21 20:46:00,78.6,75.1,29.76,South,180,2.7,-999.0,89,-99.99,,,0.00,Acu-Link.com,2013-05-22 01:46:00,
2013-05-21 21:01:00,78.3,75.1,29.77,SSE,157,3.1,-999.0,90,-99.99,,,0.00,Acu-Link.com,2013-05-22 02:01:00,
2013-05-21 21:16:00,78.1,74.9,29.78,SSW,202,6.3,-999.0,90,-99.99,,,0.00,Acu-Link.com,2013-05-22 02:16:00,
2013-05-21 21:32:00,77.7,74.9,29.78,SSW,202,3.8,-999.0,91,-99.99,,,0.00,Acu-Link.com,2013-05-22 02:32:00,
2013-05-21 21:47:00,77.7,74.9,29.79,SSE,157,3.1,-999.0,91,-99.99,,,0.00,Acu-Link.com,2013-05-22 02:47:00,
2013-05-21 22:02:00,77.7,74.9,29.80,South,180,4.7,-999.0,91,-99.99,,,0.00,Acu-Link.com,2013-05-22 03:02:00,
2013-05-21 22:18:00,77.9,75.1,29.80,South,180,3.8,-999.0,91,-99.99,,,0.00,Acu-Link.com,2013-05-22 03:18:00,
2013-05-21 22:33:00,77.5,74.7,29.80,SSE,157,4.7,-999.0,91,-99.99,,,0.00,Acu-Link.com,2013-05-22 03:33:00,
2013-05-21 22:48:00,77.4,74.8,29.80,SSE,157,4.7,-999.0,92,-99.99,,,0.00,Acu-Link.com,2013-05-22 03:48:00,
2013-05-21 23:04:00,77.2,75.0,29.80,SW,225,4.3,-999.0,93,-99.99,,,0.00,Acu-Link.com,2013-05-22 04:04:00,
2013-05-21 23:19:00,76.8,75.3,29.80,South,180,3.8,-999.0,95,-99.99,,,0.01,Acu-Link.com,2013-05-22 04:19:00,
2013-05-21 23:34:00,75.9,75.6,29.80,West,270,0.0,-999.0,99,-99.99,,,0.15,Acu-Link.com,2013-05-22 04:34:00,
2013-05-21 23:49:00,75.6,75.3,29.80,WNW,292,4.7,-999.0,99,-99.99,,,0.20,Acu-Link.com,2013-05-22 04:49:00,